Home > Weather > Tempe > Past weeks

Flag for USA Past Weather in Tempe, Arizona, USA — Yesterday and Last 2 Weeks

Now
108 °F

Scattered clouds.


Feels Like: 104 °F
Forecast: 84 / 107 °F
Wind: 5 mph from North

Location: Phoenix Sky Harbor International Airport

Current Time: Jun 24, 2016 at 6:52:54 PM

Latest Report: Jun 24, 2016 at 5:51 PM


Visibility: 10 mi

Pressure: 29.62 "Hg

Humidity: 12%

Dew Point: 45 °F

Location of TempeLocation

Past Weather in Tempe — Graph

°F

Tempe Temperature Yesterday

Maximum temperature yesterday: 111 °F (at 3:51 PM)
Minimum temperature yesterday: 90 °F (at 5:51 AM)
Average temperature yesterday: 100 °F

High & Low Weather Summary for the Past Weeks

 TemperatureHumidityPressure
High117 °F (Jun 19, 2:51 PM)51% (Jun 11, 4:51 AM)29.93 "Hg (Jun 11, 4:51 AM)
Low75 °F (Jun 15, 4:51 AM)5% (Jun 15, 1:51 PM)29.61 "Hg (Jun 19, 6:51 PM)
Average95 °F17%29.78 "Hg
* Reported Jun 9 4:51 PM — Jun 24 4:51 PM, Tempe, Weather by CustomWeather, © 2016

Note: Actual official high and low records may vary slightly from our data, if they occured in-between our weather recording intervals... More about our weather records

Advertising

Tempe Weather History for the Previous 24 Hours

Scroll right to see more
 ConditionsComfort  
Time TempWeatherWind HumidityBarometerVisibility
4:51 PM
Fri, Jun 24
109 °FScattered clouds.12 mph11%29.64 "Hg10 mi
3:51 PM108 °FScattered clouds.10 mph11%29.67 "Hg10 mi
2:51 PM109 °FPartly sunny.10 mph11%29.70 "Hg10 mi
1:51 PM106 °FPartly sunny.7 mph13%29.72 "Hg10 mi
12:51 PM105 °FPartly sunny.No wind14%29.75 "Hg10 mi
11:51 AM104 °FScattered clouds.6 mph14%29.78 "Hg10 mi
10:51 AM101 °FPassing clouds.6 mph16%29.80 "Hg10 mi
9:51 AM99 °FPassing clouds.3 mph19%29.82 "Hg10 mi
8:51 AM97 °FPassing clouds.3 mph20%29.82 "Hg10 mi
7:51 AM94 °FScattered clouds.5 mph23%29.81 "Hg10 mi
6:51 AM91 °FBroken clouds.No wind28%29.80 "Hg10 mi
5:51 AM88 °FBroken clouds.3 mph31%29.78 "Hg10 mi
4:51 AM88 °FPartly cloudy.5 mph31%29.77 "Hg10 mi
3:51 AM90 °FPartly cloudy.3 mph28%29.76 "Hg10 mi
2:51 AM92 °FPassing clouds.3 mph24%29.75 "Hg10 mi
1:51 AM95 °FPassing clouds.3 mph22%29.76 "Hg10 mi
12:51 AM96 °FPassing clouds.3 mph21%29.75 "Hg10 mi
11:51 PM
Thu, Jun 23
97 °FPassing clouds.6 mph20%29.75 "Hg10 mi
10:51 PM99 °FPassing clouds.6 mph16%29.75 "Hg10 mi
9:51 PM100 °FPassing clouds.5 mph15%29.74 "Hg10 mi
8:51 PM102 °FPartly cloudy.8 mph14%29.72 "Hg10 mi
7:51 PM103 °FPartly cloudy.5 mph15%29.70 "Hg10 mi
6:51 PM103 °FBroken clouds.13 mph15%29.70 "Hg10 mi
Weather by CustomWeather, © 2016

See weather overviewHow to use our weather pages